Flag for Brazil Weather past 2 weeks in Rio Branco, Acre, Brazil

Now
75 °F

Scattered showers. Broken clouds.


Feels Like: 74 °F
Forecast: 72 / 84 °F
Wind: 3 mph from Southwest

Location: Rio Branco Airport

Current Time: May 28, 2015 at 3:22:04 PM

Latest Report: May 28, 2015 at 3:00 PM


Visibility: N/A

Pressure: N/A

Humidity: 94%

Dew point: 73 °F

Location of Rio BrancoLocation

Historic Weather in Rio Branco — Graph

°F

Rio Branco temperature yesterday

Maximum temperature yesterday: 90 °F (at 2:00 PM)
Minimum temperature yesterday: 72 °F (at 4:00 AM)
Average temperature yesterday: 78 °F

Past Weeks' High & Low Weather Summary

 TemperatureHumidityPressure
High90 °F (May 19, 3:00 PM)100% (May 13, 8:00 PM)30.07 "Hg (May 13, 8:00 PM)
Low66 °F (May 19, 4:00 PM)22% (May 15, 10:00 AM)29.80 "Hg (May 24, 3:00 PM)
Average77 °F88%29.93 "Hg
* Reported May 13 2:00 PM — May 28 2:00 PM, Rio Branco, Weather by CustomWeather, © 2015

Note: Actual official high and low records may vary slightly from our data, if they occured in-between our weather recording intervals... More about our weather records

Advertising

Rio Branco weather history for previous 24 hours

 ConditionsComfort  
Time TempWeatherWind HumidityBarometerVisibility
2:00 PM
Thu, May 28
75 °FThunderstorms. Partly sunny.7 mph94%N/A4 mi
1:00 PM73 °FRain. Partly sunny.12 mph94%N/A1 mi
12:00 PM86 °FScattered showers. Partly sunny.3 mph70%N/AN/A
11:00 AM86 °FBroken clouds.3 mph70%29.95 "HgN/A
10:00 AM84 °FScattered clouds.5 mph74%29.95 "HgN/A
9:00 AM82 °FScattered clouds.6 mph79%29.95 "HgN/A
8:00 AM79 °FSunny.3 mph84%29.95 "Hg10 mi
7:00 AM75 °FScattered clouds.2 mph100%29.95 "HgN/A
6:00 AM72 °FFog.No wind100%29.92 "Hg1 mi
5:00 AM72 °FFog.2 mph100%29.89 "Hg3 mi
4:00 AM72 °FFog.2 mph100%29.89 "Hg3 mi
3:00 AM72 °FFog.2 mph94%29.86 "Hg3 mi
2:00 AM72 °FClear.No wind100%29.89 "Hg10 mi
1:00 AM73 °FClear.2 mph94%29.89 "Hg10 mi
12:00 AM75 °FClear.2 mph94%29.92 "Hg10 mi
11:00 PM
Wed, May 27
75 °FClear.2 mph94%29.92 "Hg10 mi
10:00 PM75 °FClear.No wind94%29.92 "Hg10 mi
9:00 PM75 °FClear.No wind94%29.92 "Hg10 mi
8:00 PM75 °FClear.2 mph100%29.89 "Hg10 mi
7:00 PM77 °FClear.3 mph94%29.86 "Hg10 mi
6:00 PM79 °FPassing clouds.3 mph84%29.83 "HgN/A
5:00 PM81 °FPassing clouds.3 mph79%29.83 "HgN/A
4:00 PM84 °FPassing clouds.2 mph74%29.80 "HgN/A
3:00 PM84 °FScattered clouds.2 mph79%29.80 "HgN/A
Weather by CustomWeather, © 2015

See weather overviewHow to use our weather pages